STARLINK-1201, 45182

Orbit data source: Space-Track

STARLINK-1201, 45182 is a payload satellite owned by SpaceX/Seattle (US) in LEO that was launched on Mon, 17 Feb 2020 UTC via an FALCON 9 launch vehicle from the Air Force Eastern Test Range (AFETR). Payload-class satellites include a variety of spacecraft equipped with specific instruments for various scientific and technological missions. These include communications satellites like Starlink; space stations such as the ISS; scientific satellites like the Hubble; Earth observation satellites from companies like Planet Labs, Umbra, and HawkEye 360; GPS; miniature CubeSats for education and research; and military/defense satellites.

Loading next visibility...
Identifier
45182, 2020-012E
Orbit
LEO
Last TLE update
11 hours ago
Origin
Manufacturer
SpaceX/Seattle
Mission
Partially operational Commercial Communications
Bus & Motor
STARLINK, Unknown motor
Mass
260 kg wet, ~248 kg dry
Launch date (UTC)
2020-02-17 (5 years ago)
Launch vehicle
FALCON 9
Launch site
Air Force Eastern Test Range (AFETR)
Object type
Payload
Rocket body
Debris
Shape & HBR
Box + 1 Pan, 8.86 m
Radar Cross Section
13.562 m², Large (>1 m²)

Expand to show TLE details & history

TLE from 11 hours ago
0 STARLINK-1201
1 45182U 20012E   25183.82773711  .00125294  00000-0  11252-2 0  9996
2 45182  53.0483  54.7937 0004659 190.8333 169.2583 15.67384806297494
Epoch: 2025-07-02T19:51Z
TLE epoch observation values (Epoch: 2025-07-02T19:51:56.486Z)
Latitude
Longitude
-164.2949°
Altitude
370.378 km
Speed
7.687 km/s
True Right ascension
03h 39m 10s
True Declination
0° 00' 00"
Sunlit
Object was in daylight at epoch
Visualization orbit readout
Latitude
-33.33224°
Longitude
164.07411°
Altitude
378.278 km
Speed
7.682 km/s
Apparent Right ascension
03h 39m 43s
Apparent Declination
-41° 45' 28"
Sunlit
Object is in daylight
Visualization observer readout
Local Sidereal Time
18:09:17
Azimuth
106.071° ESE
Elevation
-61.874°
Doppler factor
1
Orbital elements
Apogee altitude
369.81 km
Perigee altitude
363.525 km
Semi-major axis
6,744.805 km
Eccentricity
0.00047
Inclination
53.0483°
RAAN
54.7937°
Arg. of periapsis
190.8333°
True anomaly
Unknown
Mean anomaly
169.2583°
Eccentric anomaly
Unknown
Mean motion
3.91822 °/min
Orbital period
91.88 mins
BSTAR
0.0011252
Loading maneuver chart data...
Loading SW <> Apogee altitude chart data...

STARLINK-1201 Visibility forecast

Observer location: undefined°, undefined°

Span
Click to sort rows by Start time (UTC) header in descending order
Start Az.
Max El. time (UTC)
Max El. Az.
Max El.
End time (UTC)
End Az.
4 mins2025-07-03 17:27:36.993Z187.512° SSW2025-07-03 17:29:36.993Z127.915° SE26.237°2025-07-03 17:31:36.993Z75.744° E
4 mins2025-07-04 01:28:36.993Z273.202° WNW2025-07-04 01:29:36.993Z243.676° WSW25.458°2025-07-04 01:32:36.993Z163.875° S
|